Weather History for KFXY - January, 2013

Change the Weather History Date:

Thursday, January 24, 2013

  Actual Average (KMCW) Record (KMCW)
Temperature  
Mean Temperature 8 °F 16 °F  
Max Temperature 17 °F 25 °F 59 °F (1981)
Min Temperature 0 °F 7 °F -29 °F (1922)
Degree Days  
Heating Degree Days 56 49  
Month to date heating degree days 1176  
Since 1 July heating degree days 4265  
Cooling Degree Days 0 0  
Month to date cooling degree days 0  
Year to date cooling degree days 0  
Moisture  
Dew Point -9 °F    
Average Humidity 48    
Maximum Humidity 66    
Minimum Humidity 29    
Precipitation  
Precipitation 0.00 in 0.03 in 0.87 in (1967)
Month to date precipitation 0.62  
Year to date precipitation 0.62  
Snow  
Snow 0.00 in 0.30 in 4.00 in (1929)
Month to date snowfall 8.2  
Since 1 July snowfall 22.2  
Snow Depth -    
Sea Level Pressure  
Sea Level Pressure 30.42 in    
Wind  
Wind Speed 10 mph (ESE)    
Max Wind Speed 22 mph    
Max Gust Speed 25 mph    
Visibility 10 miles    
Events      
T = Trace of Precipitation, MM = Missing Value Source: NWS Daily Summary

Daily Weather History Graph

Daily Weather History Graph

Search for Another Location

Airport or City:

Trip Planner

Search our weather history database for the weather conditions in past years. The results will help you decide how hot, cold, wet, or windy it might be!

Date:

Astronomy

Jan. 24, 2013 Rise Set
Actual Time 7:37 AM CST 5:16 PM CST
Civil Twilight 7:06 AM CST 5:47 PM CST
Nautical Twilight 6:32 AM CST 6:21 PM CST
Astronomical Twilight 5:58 AM CST 6:55 PM CST
Moon 3:18 PM CST (1/24) 5:36 AM CST (1/24)
Length of Visible Light 10h 40m
Length of Day
9h 38m
Waxing Gibbous, 94% of the Moon is Illuminated
Jan 24
Waxing Gibbous
Jan 26
Full
Feb 3
Last Quarter
Feb 10
New
Feb 17
First Quarter

Hourly Weather History & Observations

Time (CST) Temp. Windchill Dew Point Humidity Pressure Visibility Wind Dir Wind Speed Gust Speed Precip Events Conditions
12:15 AM -0.4 °F -15.7 °F -9.4 °F 66% 30.52 in 10.0 mi North 9.2 mph - N/A   Clear
12:35 AM -0.4 °F -16.7 °F -9.4 °F 66% 30.52 in 10.0 mi North 10.4 mph - N/A   Clear
12:55 AM -0.4 °F -14.7 °F -9.4 °F 66% 30.52 in 10.0 mi North 8.1 mph - N/A   Clear
1:15 AM -0.4 °F -13.4 °F -9.4 °F 66% 30.52 in 10.0 mi North 6.9 mph - N/A   Clear
1:35 AM -0.4 °F -10.4 °F -9.4 °F 66% 30.53 in 10.0 mi NNE 4.6 mph - N/A   Clear
1:55 AM -0.4 °F -13.4 °F -13.0 °F 55% 30.53 in 10.0 mi NNE 6.9 mph - N/A   Clear
2:15 AM -0.4 °F -16.7 °F -13.0 °F 55% 30.53 in 10.0 mi NE 10.4 mph - N/A   Clear
2:35 AM -0.4 °F -12.0 °F -13.0 °F 55% 30.54 in 10.0 mi NNE 5.8 mph - N/A   Clear
2:55 AM -0.4 °F -13.4 °F -13.0 °F 55% 30.55 in 10.0 mi NE 6.9 mph - N/A   Clear
3:15 AM -0.4 °F -13.4 °F -14.8 °F 51% 30.56 in 10.0 mi NNE 6.9 mph - N/A   Clear
3:35 AM -0.4 °F -14.7 °F -14.8 °F 51% 30.56 in 10.0 mi NNE 8.1 mph - N/A   Clear
3:55 AM -0.4 °F -14.7 °F -14.8 °F 51% 30.56 in 10.0 mi NE 8.1 mph - N/A   Clear
4:15 AM -0.4 °F -12.0 °F -14.8 °F 51% 30.59 in 10.0 mi NNE 5.8 mph - N/A   Scattered Clouds
4:35 AM -0.4 °F -15.7 °F -14.8 °F 51% 30.55 in 10.0 mi NNE 9.2 mph - N/A   Clear
4:55 AM -0.4 °F -10.4 °F -13.0 °F 55% 30.54 in 10.0 mi NE 4.6 mph - N/A   Clear
5:15 AM -0.4 °F -13.4 °F -13.0 °F 55% 30.54 in 10.0 mi ENE 6.9 mph - N/A   Clear
5:35 AM -0.4 °F -14.7 °F -13.0 °F 55% 30.54 in 10.0 mi NE 8.1 mph - N/A   Clear
5:55 AM -0.4 °F -12.0 °F -13.0 °F 55% 30.55 in 10.0 mi ENE 5.8 mph - N/A   Clear
6:15 AM -0.4 °F -12.0 °F -13.0 °F 55% 30.56 in 10.0 mi ENE 5.8 mph - N/A   Clear
6:35 AM -0.4 °F -10.4 °F -13.0 °F 55% 30.57 in 10.0 mi ENE 4.6 mph - N/A   Clear
6:55 AM -0.4 °F -14.7 °F -13.0 °F 55% 30.56 in 10.0 mi ENE 8.1 mph - N/A   Clear
7:15 AM -0.4 °F -12.0 °F -13.0 °F 55% 30.58 in 10.0 mi East 5.8 mph - N/A   Clear
7:35 AM -0.4 °F -10.4 °F -13.0 °F 55% 30.58 in 10.0 mi East 4.6 mph - N/A   Clear
7:55 AM -0.4 °F -12.0 °F -13.0 °F 55% 30.58 in 10.0 mi East 5.8 mph - N/A   Clear
8:15 AM -0.4 °F -12.0 °F -13.0 °F 55% 30.57 in 10.0 mi ESE 5.8 mph - N/A   Clear
8:35 AM 1.4 °F -8.3 °F -11.2 °F 56% 30.56 in 10.0 mi ESE 4.6 mph - N/A   Clear
8:55 AM 1.4 °F -13.5 °F -11.2 °F 56% 30.54 in 10.0 mi East 9.2 mph - N/A   Clear
9:15 AM 1.4 °F -12.5 °F -9.4 °F 61% 30.55 in 10.0 mi East 8.1 mph - N/A   Clear
9:35 AM 3.2 °F -9.1 °F -9.4 °F 56% 30.55 in 10.0 mi ESE 6.9 mph - N/A   Clear
9:55 AM 3.2 °F -11.3 °F -9.4 °F 56% 30.53 in 10.0 mi ESE 9.2 mph - N/A   Clear
10:15 AM 3.2 °F -11.3 °F -9.4 °F 56% 30.54 in 10.0 mi SE 9.2 mph - N/A   Clear
10:35 AM 5.0 °F -11.6 °F -7.6 °F 56% 30.53 in 10.0 mi ESE 12.7 mph 16.1 mph N/A   Clear
10:55 AM 5.0 °F -11.6 °F -7.6 °F 56% 30.54 in 10.0 mi SE 12.7 mph - N/A   Clear
11:15 AM 6.8 °F -9.3 °F -7.6 °F 52% 30.54 in 10.0 mi SE 12.7 mph 16.1 mph N/A   Clear
11:35 AM 8.6 °F -6.3 °F -7.6 °F 48% 30.51 in 10.0 mi SE 11.5 mph - N/A   Clear
11:55 AM 8.6 °F -7.7 °F -9.4 °F 44% 30.51 in 10.0 mi SSE 13.8 mph - N/A   Clear
12:15 PM 10.4 °F -4.1 °F -9.4 °F 41% 30.49 in 10.0 mi SSE 11.5 mph - N/A   Clear
12:35 PM 10.4 °F -5.4 °F -7.6 °F 44% 30.48 in 10.0 mi SE 13.8 mph - N/A   Clear
12:55 PM 10.4 °F -6.0 °F -9.4 °F 41% 30.45 in 10.0 mi SE 15.0 mph - N/A   Clear
1:15 PM 10.4 °F -5.4 °F -9.4 °F 41% 30.43 in 10.0 mi SE 13.8 mph 19.6 mph N/A   Clear
1:35 PM 10.4 °F -7.2 °F -9.4 °F 41% 30.40 in 10.0 mi SE 17.3 mph - N/A   Clear
1:55 PM 12.2 °F -3.7 °F -9.4 °F 38% 30.40 in 10.0 mi SE 15.0 mph 18.4 mph N/A   Clear
2:15 PM 14.0 °F -0.8 °F -13.0 °F 29% 30.38 in 10.0 mi SE 13.8 mph 19.6 mph N/A   Clear
2:35 PM 14.0 °F -0.2 °F -11.2 °F 32% 30.39 in 10.0 mi SE 12.7 mph 18.4 mph N/A   Clear
2:55 PM 14.0 °F 0.5 °F -11.2 °F 32% 30.39 in 10.0 mi SE 11.5 mph - N/A   Clear
3:15 PM 14.0 °F -0.2 °F -9.4 °F 35% 30.37 in 10.0 mi SE 12.7 mph 17.3 mph N/A   Clear
3:35 PM 14.0 °F -0.2 °F -9.4 °F 35% 30.36 in 10.0 mi SE 12.7 mph - N/A   Clear
3:55 PM 14.0 °F -2.0 °F -9.4 °F 35% 30.33 in 10.0 mi SE 16.1 mph - N/A   Clear
4:15 PM 14.0 °F -1.4 °F -7.6 °F 38% 30.32 in 10.0 mi SE 15.0 mph - N/A   Clear
4:35 PM 14.0 °F -1.4 °F -7.6 °F 38% 30.29 in 10.0 mi SSE 15.0 mph 20.7 mph N/A   Clear
4:55 PM 14.0 °F -1.4 °F -7.6 °F 38% 30.29 in 10.0 mi SE 15.0 mph - N/A   Clear
5:15 PM 14.0 °F -0.2 °F -7.6 °F 38% 30.28 in 10.0 mi SE 12.7 mph 19.6 mph N/A   Clear
5:35 PM 14.0 °F -2.0 °F -7.6 °F 38% 30.27 in 10.0 mi SE 16.1 mph - N/A   Clear
5:55 PM 14.0 °F -2.5 °F -7.6 °F 38% 30.27 in 10.0 mi SE 17.3 mph 20.7 mph N/A   Clear
6:15 PM 14.0 °F -0.8 °F -7.6 °F 38% 30.27 in 10.0 mi SE 13.8 mph 21.9 mph N/A   Clear
6:35 PM 14.0 °F -1.4 °F -5.8 °F 41% 30.25 in 10.0 mi SE 15.0 mph - N/A   Mostly Cloudy
6:55 PM 14.0 °F -1.4 °F -5.8 °F 41% 30.25 in 10.0 mi SE 15.0 mph 20.7 mph N/A   Overcast
7:15 PM 14.0 °F -2.0 °F -7.6 °F 38% 30.27 in 10.0 mi SE 16.1 mph - N/A   Overcast
7:35 PM 14.0 °F -2.0 °F -7.6 °F 38% 30.26 in 10.0 mi SE 16.1 mph - N/A   Overcast
7:55 PM 14.0 °F -3.0 °F -5.8 °F 41% 30.24 in 10.0 mi SE 18.4 mph 24.2 mph N/A   Overcast
8:15 PM 14.0 °F -4.3 °F -5.8 °F 41% 30.21 in 10.0 mi SSE 21.9 mph 25.3 mph N/A   Overcast
8:35 PM 14.0 °F -3.4 °F -5.8 °F 41% 30.19 in 10.0 mi SSE 19.6 mph 24.2 mph N/A   Overcast
8:55 PM 14.0 °F -2.0 °F -4.0 °F 45% 30.18 in 10.0 mi SSE 16.1 mph 21.9 mph N/A   Overcast
9:15 PM 15.8 °F 0.3 °F -4.0 °F 41% 30.19 in 10.0 mi SSE 16.1 mph - N/A   Overcast
9:35 PM 15.8 °F -0.6 °F -4.0 °F 41% 30.20 in 10.0 mi SSE 18.4 mph - N/A   Overcast
9:55 PM 15.8 °F 0.3 °F -2.2 °F 45% 30.18 in 10.0 mi SSE 16.1 mph - N/A   Overcast
10:15 PM 15.8 °F 1.4 °F -0.4 °F 49% 30.18 in 10.0 mi SSE 13.8 mph 21.9 mph N/A   Overcast
10:35 PM 15.8 °F 0.3 °F -0.4 °F 49% 30.16 in 10.0 mi SSE 16.1 mph 21.9 mph N/A   Overcast
10:55 PM 17.6 °F 5.0 °F -0.4 °F 45% 30.16 in 10.0 mi SSE 11.5 mph 21.9 mph N/A   Overcast
11:15 PM 17.6 °F 4.3 °F 1.4 °F 49% 30.18 in 10.0 mi South 12.7 mph - N/A   Overcast
11:35 PM 17.6 °F 4.3 °F 1.4 °F 49% 30.18 in 10.0 mi South 12.7 mph - N/A   Overcast
11:55 PM 17.6 °F 5.0 °F 1.4 °F 49% 30.16 in 10.0 mi South 11.5 mph 17.3 mph N/A   Overcast